Temperature
17 17 17 17 17 17 17 17 17 17 17 17 17 17 17 17 17 17 18 18 17 17 17 18 17 17 17 17 18 18 18 18 18 18 18 18 18 18 18 18 17 17 18
16 17 17 17 17 17 17 17 17 17 17 17 17 17 17 17 17 17 17 17 17 17 17 17 17 17 17 17 17 18 18 17 17 18 18 17 17 17 18 18 18 17 18
16 17 17 17 17 17 17 17 17 17 17 17 17 17 17 17 17 17 17 17 17 17 17 17 17 17 17 17 17 17 17 17 17 17 17 17 17 17 17 17 17 18 18
16 16 17 17 17 17 17 17 17 17 17 17 17 17 17 17 17 17 17 17 17 17 17 17 17 17 17 17 17 17 17 17 17 17 16 16 16 17 17 17 17 17 17
16 16 17 17 17 17 17 17 17 17 17 17 17 17 17 17 17 17 17 17 17 17 17 17 17 17 17 17 17 17 17 17 17 16 16 16 16 17 17 17 17 17 17
16 16 17 17 17 17 17 17 17 17 17 17 17 17 17 17 17 17 17 17 17 17 17 16 16 17 17 17 16 17 17 16 16 16 16 16 16 16 17 16 16 17 17
16 16 16 17 17 17 17 17 17 17 17 16 16 16 17 16 16 16 16 16 16 16 16 16 16 16 16 16 16 16 16 16 16 16 16 16 16 16 16 16 16 16 16
16 16 16 17 17 17 17 17 17 16 16 16 16 16 16 16 16 16 16 16 16 16 16 16 16 16 16 16 16 16 16 16 16 15 15 15 16 16 16 16 16 16 16
16 16 16 16 16 17 17 17 16 16 16 16 16 16 16 16 16 16 16 16 16 16 16 16 16 16 16 16 16 16 16 16 15 15 15 15 15 15 15 15 16 16 16
16 16 16 16 16 16 16 16 16 16 16 16 16 16 16 16 16 16 16 16 16 16 16 16 16 16 16 16 16 16 16 15 15 15 15 15 15 15 15 15 15 15 15
16 16 16 16 16 16 16 16 16 16 16 16 16 16 16 16 16 16 16 16 16 16 16 16 16 15 15 15 15 15 15 15 15 15 15 15 15 15 15 15 15 15 15
17 16 16 16 16 16 16 16 16 15 15 15 15 15 15 15 15 15 16 16 16 16 15 15 16 15 15 15 15 15 15 15 15 14 14 14 14 14 14 14 15 15 14
16 16 16 16 16 16 16 16 16 15 15 15 15 15 15 15 15 15 15 15 15 15 15 15 15 15 15 15 15 15 15 15 14 14 14 14 14 14 14 14 14 14 14
16 16 16 16 16 16 16 16 15 15 15 15 15 15 15 15 15 15 15 15 15 15 15 15 15 15 15 15 15 15 14 14 14 14 14 14 14 14 14 14 14 14 14
16 16 16 16 16 16 16 15 15 15 15 15 15 15 15 15 15 15 15 15 15 15 15 15 15 15 14 14 14 14 14 14 14 14 14 14 14 14 14 14 14 14 14
16 16 16 16 16 15 15 15 15 15 15 15 15 15 15 15 15 14 15 14 14 14 14 14 14 14 14 14 14 14 14 14 14 14 13 13 13 13 13 13 13 13 13
16 16 16 16 16 15 15 15 15 15 15 15 14 14 15 15 14 14 14 14 14 14 14 14 14 14 14 14 14 14 13 13 13 13 13 13 13 13 13 13 13 13 13
16 16 16 15 15 15 15 15 15 15 15 15 14 14 14 14 14 14 14 14 14 14 14 14 14 14 14 14 13 13 13 13 13 13 13 13 13 13 13 13 13 13 13
16 16 16 15 15 15 15 15 15 14 14 14 14 14 14 14 14 14 14 14 14 14 14 14 13 13 13 13 13 13 13 13 13 13 13 13 13 13 13 13 13 13 13
16 16 16 15 15 15 15 15 14 14 14 14 14 14 14 14 14 14 14 14 13 13 13 13 13 13 13 13 13 13 13 13 13 13 13 12 12 12 12 12 12 12 13
16 16 16 15 15 15 15 14 14 14 14 14 14 14 14 14 14 14 13 13 13 13 13 13 13 13 13 13 13 13 12 12 12 12 12 12 12 12 12 12 12 12 12
16 16 15 15 15 15 15 14 14 14 14 14 13 13 13 13 13 13 13 13 13 13 13 13 13 12 12 13 13 13 13 13 12 12 12 12 12 12 12 12 12 12 12
16 16 15 15 15 15 15 14 14 14 13 13 13 13 13 13 13 13 13 12 12 12 12 12 12 12 12 12 12 12 13 13 12 12 11 11 11 11 11 11 11 11 11
16 15 15 15 15 15 15 14 14 14 13 13 13 13 13 13 13 13 12 12 12 12 12 12 12 12 12 11 11 11 12 11 12 11 11 11 11 11 11 11 11 11 11
15 15 15 15 15 15 14 14 14 13 13 13 13 13 13 13 13 12 12 12 12 12 12 12 12 11 11 11 11 11 11 11 11 11 11 11 11 11 11 10 11 11 11
15 15 15 15 15 15 14 14 13 13 13 13 13 13 12 12 12 12 12 12 12 12 11 11 11 11 11 11 11 11 11 11 11 11 11 10 10 10 10 10 10 10 10
Wind_Speed
4 6 9 9 10 12 12 12 12 12 12 12 12 12 12 11 11 10 10 10 9 9 8 8 8 8 9 9 9 10 10 11 11 11 12 12 12 11 10 8 6 9 11
4 6 8 9 11 12 12 12 13 12 12 13 12 12 12 12 11 11 11 11 10 9 9 9 9 9 9 9 9 10 11 10 10 10 10 11 12 12 12 10 9 9 11
5 6 7 10 11 12 12 12 13 13 13 13 13 13 13 12 12 12 11 11 11 10 10 10 10 10 10 10 10 10 11 10 10 9 7 8 11 12 12 12 11 11 11
6 6 9 10 11 12 12 12 13 13 13 13 13 13 13 13 13 12 13 12 12 11 11 11 11 10 10 9 10 10 10 10 9 6 7 8 9 12 11 11 11 11 11
6 7 9 10 11 11 12 12 12 13 13 13 13 14 14 14 14 14 14 13 13 13 12 12 11 11 10 10 10 10 9 9 7 7 8 8 9 11 11 11 11 11 10
6 7 9 10 11 11 12 12 12 12 12 13 13 14 14 14 14 14 14 14 13 13 13 13 12 12 11 10 10 9 9 7 5 8 8 8 9 11 11 10 10 10 10
6 7 9 10 11 11 11 12 12 12 12 13 13 14 14 14 13 13 13 13 13 13 13 13 12 12 12 11 10 10 8 6 7 7 7 9 10 11 10 10 10 10 10
6 7 8 10 10 11 11 12 12 12 12 13 13 13 13 13 13 13 13 13 12 12 12 13 12 12 12 11 11 10 8 5 7 8 8 9 11 11 11 11 11 10 10
6 6 6 7 9 10 10 11 11 11 12 12 12 12 12 12 12 12 12 12 12 12 12 12 12 11 12 12 12 11 10 7 6 7 8 9 11 11 11 11 11 10 11
5 5 6 7 7 8 9 10 10 11 11 11 11 11 10 10 10 11 12 12 12 12 12 12 12 11 11 11 10 10 8 6 8 8 8 10 11 11 11 11 10 10 10
5 4 5 6 6 7 7 8 8 8 8 7 8 8 7 7 9 9 13 12 12 12 12 11 11 10 8 10 9 7 5 7 8 8 9 11 11 11 11 10 10 9 9
4 4 4 5 5 6 6 6 6 6 7 7 8 7 7 7 8 8 10 11 11 10 10 10 9 7 5 6 7 5 6 7 7 7 10 11 10 10 10 10 10 9 9
3 3 3 4 4 5 4 5 5 5 5 6 8 8 7 6 6 6 6 7 7 7 7 7 6 6 6 6 6 6 7 6 6 7 10 11 10 9 10 10 10 9 9
3 3 3 3 3 4 4 4 4 4 5 5 6 8 6 5 5 6 5 6 6 6 6 6 5 7 7 7 7 7 7 6 7 7 9 10 10 9 9 9 10 10 10
3 3 3 3 2 3 3 3 4 4 5 6 6 6 7 5 5 5 5 5 6 6 5 5 5 6 6 7 7 7 7 7 7 7 7 10 10 10 10 10 10 10 10
3 3 3 3 2 3 3 3 4 4 4 5 5 6 6 6 5 5 5 5 6 5 5 5 5 5 5 5 6 6 6 6 6 6 6 8 11 11 10 10 10 10 10
3 4 3 3 3 3 3 4 4 4 5 5 5 5 6 6 5 5 5 5 5 5 5 5 5 4 4 4 5 6 5 6 6 6 6 6 7 10 11 11 10 10 10
3 4 4 3 2 3 3 4 4 4 4 4 4 4 5 6 6 5 4 4 5 5 4 4 4 3 4 4 4 4 4 4 5 6 5 5 6 6 8 10 10 10 10
4 4 4 3 2 3 3 4 4 4 4 4 4 4 4 5 5 5 4 4 5 4 4 4 4 3 3 3 3 3 3 3 4 4 5 5 6 5 5 7 7 9 9
4 4 4 4 2 3 3 3 3 3 3 3 3 3 4 4 4 4 3 4 4 4 4 4 4 3 3 2 2 2 3 3 3 3 4 4 5 5 6 5 4 5 7
5 4 4 4 3 2 2 2 1 2 1 2 3 3 3 3 4 4 3 3 3 3 4 4 3 3 3 2 1 1 2 2 3 3 3 3 3 4 4 4 4 4 3
6 5 5 4 4 3 2 2 1 1 1 2 2 2 3 3 3 3 2 2 3 3 3 4 3 2 2 2 2 1 0 1 2 3 2 2 3 3 3 4 4 4 4
6 6 5 5 5 4 4 2 2 2 1 1 1 1 2 2 2 2 2 2 2 2 2 2 2 3 2 2 3 2 2 1 1 1 2 3 3 3 3 4 4 4 5
7 7 6 6 5 5 5 4 4 3 2 1 0 1 1 1 2 2 2 2 1 2 2 2 2 2 2 2 2 2 2 2 2 1 1 2 3 3 3 3 3 4 4
6 6 6 6 5 5 5 5 4 3 2 1 1 1 0 1 1 2 2 1 2 1 1 2 1 2 1 2 2 2 2 1 2 2 2 2 2 2 3 3 3 3 4
5 6 6 6 6 5 6 6 5 4 3 2 2 1 0 0 1 1 2 1 2 2 2 2 2 1 1 1 2 1 2 2 2 2 3 3 3 2 2 2 2 3 3
Wind_Direction
22 23 25 30 42 49 56 61 61 60 61 61 62 64 63 62 61 60 60 67 76 77 75 75 78 79 78 73 71 71 72 72 71 68 68 68 66 67 70 74 83 86 83
33 36 39 39 48 51 55 60 59 60 61 60 60 61 60 58 59 62 64 67 71 73 75 75 77 79 77 75 73 73 72 71 70 70 75 78 72 69 67 63 64 73 78
53 49 54 48 51 53 55 61 59 59 60 59 58 57 58 58 58 60 62 64 66 70 73 76 79 80 78 77 75 73 71 71 68 68 77 81 79 71 70 68 70 74 73
64 56 55 53 53 55 57 60 57 57 58 59 58 58 58 58 59 60 61 62 64 67 70 73 75 78 78 78 77 74 72 71 67 64 71 68 71 71 68 68 70 73 74
70 62 59 55 57 57 58 59 58 59 59 61 60 59 59 58 58 58 60 60 61 63 65 70 70 71 74 77 79 77 74 72 72 68 66 65 67 68 68 69 70 72 73
78 69 64 57 58 58 60 59 60 59 58 61 61 60 59 58 57 58 60 59 60 64 64 63 65 66 67 73 76 77 74 70 74 69 66 67 67 68 67 69 70 71 71
80 73 71 62 61 60 60 60 60 60 60 60 61 60 57 56 57 58 59 60 61 63 64 62 63 63 64 69 72 71 68 59 65 68 68 67 66 65 66 68 70 70 69
82 77 77 74 68 63 60 60 61 62 62 62 60 59 58 57 56 58 58 59 62 65 65 65 64 64 62 66 70 67 59 42 71 68 69 68 65 65 66 64 64 66 69
85 80 75 77 81 77 65 61 61 61 62 61 60 58 58 59 58 57 56 56 62 65 67 67 68 67 66 67 68 67 59 42 57 63 68 68 65 63 65 62 60 62 66
94 83 74 74 74 74 75 67 64 64 61 62 61 57 59 65 64 59 57 55 61 65 67 67 68 68 69 69 68 68 61 55 56 60 61 68 63 62 62 60 60 61 61
96 86 75 71 71 72 73 74 75 73 65 67 68 62 57 58 60 62 57 57 62 66 66 66 66 69 75 79 72 67 59 55 59 57 59 62 62 62 59 57 57 56 55
107 92 80 74 71 72 69 69 61 63 61 55 53 53 52 56 59 59 69 63 64 67 72 66 66 75 65 68 76 70 59 58 59 62 63 59 59 60 59 57 55 56 56
115 101 88 75 71 71 69 65 59 59 58 55 50 52 51 56 59 54 59 64 61 58 57 60 58 54 57 58 57 60 55 54 57 60 63 57 56 58 59 58 56 57 58
125 106 96 77 70 67 70 70 68 64 59 56 51 53 53 52 52 51 52 49 50 50 46 43 44 51 56 58 60 60 58 54 57 60 61 54 51 53 58 57 56 58 59
127 117 106 93 70 65 72 75 76 68 60 62 56 53 56 55 54 52 53 49 48 46 46 42 43 49 53 54 55 56 54 51 51 54 62 57 50 52 57 60 62 62 59
139 125 115 105 81 66 76 88 79 72 71 63 58 53 58 57 54 50 53 49 44 41 42 44 49 49 54 53 50 50 49 49 51 52 56 63 59 55 54 56 59 59 57
150 132 122 112 94 78 75 83 82 77 72 67 61 52 57 56 55 53 50 51 43 39 42 43 49 50 56 56 52 47 46 42 45 51 50 50 60 60 55 51 53 55 54
161 143 130 121 113 96 85 87 81 78 72 69 65 54 54 56 56 56 51 47 41 42 41 45 40 48 50 47 49 47 48 44 41 47 51 53 50 52 59 53 49 47 46
171 159 147 142 138 120 101 93 83 78 73 68 65 58 51 53 54 61 51 41 42 44 43 43 46 44 49 43 53 51 49 49 41 43 49 47 47 46 50 61 54 46 41
172 164 158 152 150 131 121 107 96 82 72 67 64 60 51 51 51 57 57 47 44 46 40 39 48 49 43 24 55 64 57 61 52 41 38 41 41 46 43 43 45 57 46
177 170 165 162 160 149 141 141 129 111 91 78 64 60 58 56 53 55 50 50 41 45 39 38 38 46 40 13 4 80 99 82 57 47 34 32 40 39 40 38 30 29 41
185 180 181 180 174 165 160 163 146 127 103 91 71 61 59 54 52 47 41 46 44 40 41 37 32 22 40 20 341 316 359 129 65 45 37 30 33 38 34 29 23 21 11
195 192 189 188 181 173 164 156 140 131 126 112 92 67 38 38 43 35 29 36 35 31 33 25 19 11 5 19 10 347 328 343 360 56 35 28 25 24 24 21 11 15 15
202 198 195 186 184 176 169 170 168 163 149 141 127 118 67 47 40 28 22 13 22 20 17 3 7 347 338 348 8 2 352 349 312 322 37 23 11 9 6 6 3 4 5
201 195 196 186 183 180 176 179 188 183 168 143 135 108 62 46 30 23 19 3 352 350 344 349 352 337 330 324 334 337 339 323 308 301 310 336 344 350 349 346 349 357 359
196 191 189 185 184 187 187 187 191 190 177 165 163 175 235 330 348 357 354 348 339 336 336 333 323 305 292 296 300 309 318 313 316 308 301 316 327 333 332 343 343 1 357
Height
1529 1527 1525 1524 1523 1521 1520 1520 1519 1518 1518 1517 1516 1515 1515 1514 1513 1512 1511 1510 1510 1510 1510 1510 1510 1511 1510 1510 1510 1509 1509 1509 1509 1508 1508 1507 1507 1507 1506 1506 1506 1506 1506
1530 1529 1527 1526 1525 1524 1522 1521 1521 1520 1519 1519 1518 1517 1516 1515 1515 1514 1513 1512 1512 1512 1511 1511 1511 1511 1511 1511 1511 1511 1511 1510 1510 1510 1510 1509 1509 1508 1508 1508 1507 1507 1506
1531 1530 1529 1527 1527 1525 1524 1523 1523 1522 1521 1520 1520 1519 1518 1517 1516 1515 1514 1514 1513 1513 1513 1512 1512 1512 1512 1512 1512 1512 1512 1511 1511 1511 1511 1512 1511 1510 1510 1509 1508 1508 1508
1533 1532 1531 1529 1528 1527 1526 1525 1525 1524 1523 1522 1522 1521 1520 1519 1518 1517 1516 1515 1515 1514 1514 1513 1513 1513 1513 1513 1513 1513 1513 1512 1513 1513 1513 1513 1513 1512 1511 1511 1510 1510 1510
1534 1533 1532 1531 1530 1529 1528 1527 1526 1525 1525 1524 1523 1522 1521 1520 1519 1518 1517 1517 1516 1516 1515 1515 1514 1514 1514 1514 1514 1514 1514 1514 1514 1514 1514 1514 1514 1513 1513 1512 1512 1511 1511
1536 1535 1533 1532 1532 1531 1530 1529 1528 1527 1526 1526 1525 1524 1523 1522 1521 1520 1519 1518 1518 1517 1516 1516 1516 1515 1515 1515 1515 1515 1515 1515 1515 1515 1515 1515 1515 1514 1514 1514 1513 1513 1513
1537 1536 1535 1534 1533 1532 1531 1530 1529 1529 1528 1527 1526 1526 1525 1524 1523 1522 1521 1520 1519 1518 1518 1517 1517 1517 1516 1516 1516 1516 1516 1516 1517 1517 1517 1516 1516 1515 1515 1515 1515 1514 1514
1538 1538 1537 1535 1534 1534 1533 1532 1531 1530 1530 1529 1528 1527 1526 1525 1524 1524 1523 1522 1521 1520 1519 1519 1518 1518 1518 1518 1517 1517 1517 1517 1518 1518 1518 1517 1516 1516 1516 1516 1515 1515 1515
1539 1539 1539 1538 1536 1535 1534 1533 1533 1532 1531 1530 1530 1529 1528 1527 1526 1525 1524 1523 1522 1521 1521 1521 1520 1520 1520 1519 1519 1519 1518 1518 1519 1519 1519 1518 1517 1517 1517 1516 1516 1516 1515
1540 1540 1540 1539 1538 1538 1536 1535 1534 1533 1533 1532 1531 1530 1529 1529 1528 1527 1526 1524 1523 1523 1523 1522 1522 1522 1521 1521 1521 1520 1520 1520 1520 1520 1519 1519 1518 1518 1518 1517 1517 1516 1516
1541 1541 1541 1540 1540 1539 1538 1536 1536 1535 1534 1533 1533 1532 1531 1531 1530 1529 1527 1526 1525 1525 1524 1524 1524 1523 1523 1523 1522 1522 1522 1522 1521 1521 1520 1519 1519 1519 1518 1518 1517 1517 1516
1542 1542 1542 1541 1540 1540 1539 1538 1537 1537 1536 1535 1534 1534 1533 1532 1531 1530 1529 1528 1527 1527 1526 1526 1525 1525 1525 1525 1524 1524 1524 1524 1523 1523 1522 1521 1520 1520 1519 1519 1518 1517 1516
1543 1542 1542 1542 1541 1540 1539 1538 1538 1537 1537 1536 1536 1535 1534 1534 1533 1532 1532 1531 1530 1529 1529 1528 1527 1527 1526 1526 1526 1525 1525 1525 1525 1524 1523 1522 1521 1521 1520 1520 1519 1518 1516
1543 1542 1542 1541 1541 1540 1539 1538 1538 1538 1538 1537 1537 1536 1536 1535 1534 1534 1533 1532 1531 1530 1529 1529 1528 1528 1527 1527 1527 1526 1526 1526 1526 1525 1524 1523 1522 1522 1521 1521 1520 1519 1518
1543 1542 1542 1541 1541 1540 1539 1538 1538 1538 1539 1538 1538 1537 1537 1536 1536 1535 1534 1533 1533 1532 1531 1530 1530 1529 1528 1528 1528 1527 1527 1526 1526 1525 1525 1523 1523 1522 1522 1521 1521 1520 1519
1543 1543 1542 1541 1540 1539 1538 1537 1538 1538 1539 1539 1539 1539 1538 1537 1537 1536 1536 1535 1534 1533 1532 1531 1531 1530 1529 1529 1528 1528 1527 1527 1526 1526 1525 1524 1523 1523 1522 1522 1521 1521 1520
1543 1543 1542 1542 1541 1540 1538 1538 1538 1539 1540 1540 1540 1539 1539 1538 1538 1537 1537 1536 1535 1534 1533 1532 1532 1531 1530 1530 1529 1528 1528 1527 1527 1526 1526 1525 1524 1523 1522 1522 1521 1521 1520
1542 1543 1542 1542 1542 1541 1540 1540 1540 1540 1541 1541 1540 1540 1540 1539 1538 1537 1537 1536 1535 1535 1534 1533 1533 1532 1532 1531 1530 1529 1529 1528 1527 1527 1526 1525 1525 1524 1523 1522 1521 1521 1521
1542 1542 1542 1542 1542 1542 1541 1541 1541 1541 1541 1541 1541 1541 1540 1540 1539 1538 1537 1537 1536 1535 1534 1534 1533 1533 1532 1531 1530 1530 1529 1528 1528 1527 1527 1526 1525 1524 1523 1522 1522 1521 1521
1541 1542 1542 1542 1542 1542 1542 1542 1542 1542 1542 1542 1542 1541 1540 1540 1539 1539 1538 1537 1536 1536 1535 1534 1533 1533 1532 1531 1531 1530 1530 1529 1528 1527 1527 1526 1525 1524 1523 1523 1522 1521 1520
1540 1541 1541 1542 1542 1542 1542 1542 1542 1542 1542 1542 1542 1541 1541 1540 1539 1539 1538 1537 1536 1536 1535 1534 1533 1533 1532 1531 1531 1531 1530 1529 1529 1528 1527 1526 1525 1524 1523 1523 1522 1521 1520
1539 1539 1541 1541 1541 1541 1542 1542 1542 1542 1542 1542 1541 1541 1541 1540 1539 1539 1538 1537 1536 1536 1535 1534 1533 1533 1532 1531 1531 1531 1531 1531 1529 1528 1527 1526 1525 1524 1523 1522 1522 1521 1520
1537 1538 1539 1540 1540 1541 1541 1541 1542 1542 1542 1542 1541 1541 1540 1540 1539 1538 1538 1537 1536 1535 1535 1534 1533 1533 1532 1532 1531 1531 1531 1530 1529 1529 1527 1526 1525 1524 1523 1522 1521 1520 1519
1535 1536 1537 1538 1539 1539 1540 1540 1540 1541 1541 1541 1541 1540 1540 1540 1539 1538 1537 1537 1536 1535 1534 1534 1533 1533 1532 1531 1531 1530 1531 1529 1529 1528 1528 1526 1524 1523 1522 1521 1520 1518 1517
1533 1534 1535 1536 1537 1537 1538 1538 1539 1540 1540 1540 1540 1540 1540 1539 1538 1538 1537 1536 1535 1535 1534 1533 1532 1532 1531 1531 1530 1530 1529 1528 1528 1528 1527 1526 1524 1523 1522 1520 1519 1517 1516
1530 1531 1533 1534 1534 1535 1536 1536 1537 1538 1538 1539 1539 1539 1539 1538 1538 1537 1536 1535 1535 1534 1533 1532 1531 1531 1530 1530 1529 1529 1528 1528 1527 1527 1526 1524 1523 1522 1521 1519 1518 1516 1515